Willimantic, CT

4:29 PM EST on December 10, 2019 (GMT -0500)
Windham

Weather History for KIJD - November, 2019

Change the Weather History Date:

Saturday, November 16, 2019

  Actual Average Record
Temperature  
Mean Temperature 28 °F -  
Max Temperature 37 °F 49 °F 75 °F (1993)
Min Temperature 19 °F 28 °F 12 °F (1996)
Degree Days  
Heating Degree Days 37    
Moisture  
Dew Point 4 °F    
Average Humidity 37    
Maximum Humidity 62    
Minimum Humidity 15    
Precipitation  
Precipitation 0.00 in - - ()
Sea Level Pressure  
Sea Level Pressure 30.44 in    
Wind  
Wind Speed 9 mph ()    
Max Wind Speed 21 mph    
Max Gust Speed 29 mph    
Visibility 10.0 miles    
Events      
Averages and records for this station are not official NWS values.
T = Trace of Precipitation, MM = Missing Value Source: Averaged Metar Reports

Daily Weather History Graph

Daily Weather History Graph

Search for Another Location

Airport or City:

Astronomy

Nov. 16, 2019 Rise Set
Actual Time 6:38 AM EST 4:27 PM EST
Civil Twilight 6:08 AM EST 4:57 PM EST
Nautical Twilight 5:35 AM EST 5:31 PM EST
Astronomical Twilight 5:02 AM EST 6:04 PM EST
Moon 7:55 PM EST (11/16) 10:31 AM EST (11/16)
Length of Visible Light 10h 48m
Length of Day
9h 48m
Waning Gibbous, 82% of the Moon is Illuminated
Nov 16
Waning Gibbous
Nov 19
Last Quarter
Nov 26
New
Dec 4
First Quarter
Dec 12
Full

Hourly Weather History & Observations

Time (EST) Temp. Windchill Dew Point Humidity Pressure Visibility Wind Dir Wind Speed Gust Speed Precip Events Conditions
12:52 AM 37.9 °F 30.9 °F 25.0 °F 60% 30.23 in 10.0 mi NW 10.4 mph - N/A   Clear
1:52 AM 36.0 °F 30.3 °F 24.1 °F 62% 30.25 in 10.0 mi North 6.9 mph - N/A   Mostly Cloudy
2:52 AM 35.1 °F 25.9 °F 21.0 °F 57% 30.30 in 10.0 mi North 13.8 mph 28.8 mph N/A   Partly Cloudy
3:52 AM 32.0 °F 22.1 °F 10.9 °F 42% 30.34 in 10.0 mi North 13.8 mph 25.3 mph N/A   Clear
4:52 AM 30.0 °F 21.1 °F 8.1 °F 40% 30.37 in 10.0 mi North 10.4 mph 19.6 mph N/A   Clear
5:52 AM 28.0 °F 19.3 °F 1.9 °F 33% 30.42 in 10.0 mi NNE 9.2 mph - N/A   Clear
6:52 AM 27.0 °F 18.7 °F -0.9 °F 30% 30.45 in 10.0 mi North 8.1 mph - N/A   Clear
7:52 AM 28.0 °F 17.0 °F -0.0 °F 30% 30.50 in 10.0 mi North 13.8 mph - N/A   Clear
8:52 AM 30.0 °F 20.0 °F 1.0 °F 29% 30.51 in 10.0 mi NNE 12.7 mph - N/A   Clear
9:52 AM 32.0 °F 23.6 °F 1.0 °F 27% 30.50 in 10.0 mi North 10.4 mph - N/A   Clear
10:52 AM 35.1 °F 23.8 °F -4.0 °F 19% 30.48 in 10.0 mi NE 20.7 mph 26.5 mph N/A   Clear
11:52 AM 37.0 °F 27.4 °F -5.1 °F 17% 30.48 in 10.0 mi ENE 17.3 mph 26.5 mph N/A   Clear
12:52 PM 37.0 °F 28.9 °F -4.0 °F 17% 30.46 in 10.0 mi NNE 12.7 mph 21.9 mph N/A   Clear
1:52 PM 37.0 °F 28.5 °F -6.0 °F 16% 30.45 in 10.0 mi NE 13.8 mph - N/A   Clear
2:52 PM 37.9 °F 30.5 °F -7.1 °F 15% 30.44 in 10.0 mi ENE 11.5 mph - N/A   Clear
3:52 PM 36.0 °F 28.0 °F -6.0 °F 17% 30.46 in 10.0 mi ENE 11.5 mph - N/A   Clear
4:52 PM 32.0 °F 28.7 °F -2.9 °F 22% 30.48 in 10.0 mi ENE 3.5 mph - N/A   Clear
5:52 PM 27.0 °F - 6.1 °F 41% 30.49 in 10.0 mi Calm Calm - N/A   Clear
6:52 PM 27.0 °F 23.0 °F 6.1 °F 41% 30.51 in 10.0 mi NE 3.5 mph - N/A   Clear
7:52 PM 24.1 °F - 7.0 °F 48% 30.53 in 10.0 mi Calm Calm - N/A   Clear
8:52 PM 21.0 °F 16.2 °F 9.0 °F 60% 30.52 in 10.0 mi ENE 3.5 mph - N/A   Clear
9:52 PM 21.0 °F 14.6 °F 6.1 °F 53% 30.51 in 10.0 mi NNE 4.6 mph - N/A   Clear
10:52 PM 19.0 °F 11.1 °F 7.0 °F 59% 30.50 in 10.0 mi NE 5.8 mph - N/A   Clear
11:52 PM 23.0 °F 15.8 °F 3.0 °F 42% 30.48 in 10.0 mi North 5.8 mph - N/A   Clear